MAKERSAT 0

Last updated on Tue Jul 01 2025 00:03:44 GMT+0000 (Coordinated Universal Time)

1 43016U 17073D 25181.59870018 .00012643 00000+0 49875-3 0 9998 2 43016 97.5163 59.5793 0147159 67.7343 293.9420 15.16145548412929
UTC large
Height (km)
Speed (km/s)
/
Latitude / Longitude
Inclination (degrees)
Orbital Period (minutes)
Azimuth
Elevation
Range (km)
Doppler Factor

Next 0 passes for location: London (51.5072 / 0.1276)

Sorry there are no passes over London.